Location: ScottNC Observatory
(36.0892°N, 80.4832°W)
Time: 03:30:29
(UTC-05:00)

Tiangong 2 - Visible Passes

Search period start: 21 February 2019 00:00
Search period end: 03 March 2019 00:00
Orbit: 380 x 390 km, 42.8° (Epoch: 21 February)

Date Brightness Start Highest point End Pass type
(mag) Time Alt. Az. Time Alt. Az. Time Alt. Az.
21 Feb 4.1 20:04:43 10° WSW 20:05:49 11° SW 20:06:22 11° SSW visible
22 Feb 3.4 19:04:15 10° W 19:06:46 22° SW 19:09:16 10° SSE visible
24 Feb 4.3 18:43:45 10° WSW 18:44:46 11° SW 18:45:48 10° SSW visible
